FW3585 Weather Reports


Display with metric or nautical units.
time (UTC)temp
F
wind
direction
speed
MPH
gust
MPH
rain 1hr
in
rain 24hr
in
rain mn
in
humidity
%
barometer
mb
20260901094535 69 341 1.0 2.0 0.00 0.00 0.00 96 1018.0
20260901093034 69 341 0.0 2.0 0.00 0.00 0.00 96 1018.1
20260901091534 69 341 0.0 0.0 0.00 0.00 0.00 96 1017.8
20260901090031 69 341 1.0 3.0 0.00 0.00 0.00 96 1017.9
20260901084550 70 342 2.0 3.0 0.00 0.00 0.00 96 1018.0
20260901083033 70 340 0.0 1.0 0.00 0.00 0.00 96 1017.9
20260901081527 70 340 1.0 2.0 0.00 0.00 0.00 96 1018.1
20260901080028 70 340 0.0 1.0 0.00 0.00 0.00 95 1018.2
20260901074527 70 340 1.0 4.0 0.00 0.00 0.00 95 1018.2
20260901073025 70 339 2.0 5.0 0.00 0.00 0.00 95 1018.4
20260901071523 71 348 0.0 1.0 0.00 0.00 0.00 94 1018.3
20260901070021 71 348 0.0 0.0 0.00 0.00 0.00 93 1018.1
20260901064519 71 348 0.0 0.0 0.00 0.00 0.00 93 1018.2
20260901063018 72 348 0.0 0.0 0.00 0.00 0.00 93 1018.5
20260901061516 72 348 0.0 0.0 0.00 0.00 0.00 92 1018.5
20260901060014 72 348 0.0 3.0 0.00 0.00 0.00 92 1018.5
20260901054513 72 355 0.0 0.0 0.00 0.00 0.00 92 1018.9
20260901053011 73 341 0.0 0.0 0.00 0.00 0.00 91 1019.0
20260901051509 73 342 0.0 0.0 0.00 0.00 0.00 90 1018.8
20260901050007 73 342 0.0 0.0 0.00 0.00 0.00 89 1018.9
20260901044507 74 344 0.0 1.0 0.00 0.00 0.00 88 1018.9
20260901043002 75 59 0.0 0.0 0.00 0.00 0.00 86 1018.9
20260901041600 76 82 0.0 0.0 0.00 0.00 0.00 85 1019.0
20260901040057 76 86 0.0 0.0 0.00 0.00 0.00 83 1019.1
20260901034606 77 87 0.0 0.0 0.00 0.00 0.00 81 1019.1
20260901033110 78 88 0.0 0.0 0.00 0.00 0.00 80 1018.9
20260901031554 79 88 0.0 0.0 0.00 0.00 0.00 79 1019.0
20260901030054 79 89 0.0 7.0 0.00 0.00 0.00 78 1019.1
20260901024558 79 104 4.0 9.0 0.00 0.00 0.00 77 1019.0
20260901023055 80 129 4.0 11.0 0.00 0.00 0.00 76 1018.8
20260901021552 80 94 5.0 11.0 0.00 0.00 0.00 75 1018.7
20260901020051 80 87 2.0 8.0 0.00 0.00 0.00 74 1018.8
20260901014651 81 82 0.0 6.0 0.00 0.00 0.00 74 1018.8
20260901013051 81 96 7.0 14.0 0.00 0.00 0.00 73 1018.7
20260901011550 81 40 1.0 10.0 0.00 0.00 0.00 74 1018.6
20260901010049 81 63 3.0 8.0 0.00 0.00 0.00 75 1018.4
20260901004600 81 72 4.0 11.0 0.00 0.00 0.00 76 1018.3
20260901003048 82 63 2.0 10.0 0.00 0.00 0.00 75 1018.3
20260901001553 83 30 0.0 5.0 0.00 0.00 0.00 72 1018.1
20260901000101 84 322 2.0 6.0 0.00 0.00 0.00 68 1018.0
20260831234547 85 128 0.0 2.0 0.00 0.00 0.00 64 1017.8
20260831233046 86 125 0.0 3.0 0.00 0.00 0.00 63 1017.8
20260831231546 87 140 4.0 9.0 0.00 0.00 0.00 60 1017.8
20260831230046 88 186 2.0 5.0 0.00 0.00 0.00 59 1017.7
20260831224545 90 173 2.0 8.0 0.00 0.00 0.00 57 1017.8
20260831223044 90 111 2.0 9.0 0.00 0.00 0.00 53 1017.6
20260831221543 90 83 2.0 5.0 0.00 0.00 0.00 52 1017.7
20260831220043 90 72 4.0 8.0 0.00 0.00 0.00 52 1017.5
20260831214542 90 61 2.0 6.0 0.00 0.00 0.00 51 1017.5
20260831213041 90 79 3.0 6.0 0.00 0.00 0.00 52 1017.4
20260831211543 90 71 0.0 8.0 0.00 0.00 0.00 53 1017.5
20260831210040 90 69 3.0 8.0 0.00 0.00 0.00 52 1017.5
20260831204542 91 299 4.0 7.0 0.00 0.00 0.00 50 1017.5
20260831203039 92 348 4.0 8.0 0.00 0.00 0.00 50 1017.6
20260831201538 92 79 4.0 8.0 0.00 0.00 0.00 49 1017.6
20260831200036 91 50 4.0 9.0 0.00 0.00 0.00 50 1017.7
20260831194537 90 71 3.0 6.0 0.00 0.00 0.00 52 1017.9
20260831193041 91 286 1.0 6.0 0.00 0.00 0.00 50 1017.9
20260831191533 91 43 2.0 12.0 0.00 0.00 0.00 49 1017.9
20260831190052 92 222 2.0 11.0 0.00 0.00 0.00 48 1018.3
20260831184531 92 236 3.0 7.0 0.00 0.00 0.00 49 1018.4
20260831183028 92 281 2.0 9.0 0.00 0.00 0.00 53 1018.4
20260831181527 91 289 1.0 8.0 0.00 0.00 0.00 55 1018.6
20260831180024 91 277 3.0 10.0 0.00 0.00 0.00 52 1018.7
20260831174524 92 254 1.0 3.0 0.00 0.00 0.00 50 1018.7
20260831173023 89 277 3.0 9.0 0.00 0.00 0.00 56 1018.9
20260831171519 89 339 6.0 10.0 0.00 0.00 0.00 57 1019.0
20260831170019 89 46 1.0 8.0 0.00 0.00 0.00 58 1019.3
20260831164519 89 35 2.0 6.0 0.00 0.00 0.00 55 1019.4
20260831163017 88 290 2.0 8.0 0.00 0.00 0.00 59 1019.5
20260831161510 88 30 3.0 9.0 0.00 0.00 0.00 61 1019.5
20260831160012 86 332 1.0 6.0 0.00 0.00 0.00 63 1019.6
20260831154516 87 78 1.0 8.0 0.00 0.00 0.00 63 1019.7
20260831153002 86 38 5.0 8.0 0.00 0.00 0.00 63 1019.7
20260831151610 86 78 0.0 3.0 0.00 0.00 0.00 67 1019.6
20260831150059 85 59 1.0 5.0 0.00 0.00 0.00 69 1019.7
20260831144551 85 122 0.0 4.0 0.00 0.00 0.00 70 1019.9
20260831143047 83 222 0.0 4.0 0.00 0.00 0.00 72 1019.7
20260831141547 82 331 1.0 3.0 0.00 0.00 0.00 75 1019.6
20260831140038 81 269 1.0 3.0 0.00 0.00 0.00 77 1019.6
20260831134533 80 311 0.0 3.0 0.00 0.00 0.00 79 1019.8
20260831133028 79 297 0.0 3.0 0.00 0.00 0.00 80 1019.8
20260831131524 78 271 1.0 5.0 0.00 0.00 0.00 82 1019.8
20260831130019 76 306 3.0 5.0 0.00 0.00 0.00 85 1019.9
20260831124516 75 322 0.0 3.0 0.00 0.00 0.00 86 1019.9
20260831123010 75 243 1.0 3.0 0.00 0.00 0.00 87 1020.0
20260831121506 73 85 1.0 2.0 0.00 0.00 0.00 89 1019.8
20260831120001 73 86 0.0 2.0 0.00 0.00 0.00 90 1019.7
20260831114602 71 88 0.0 1.0 0.00 0.00 0.00 92 1019.7
20260831113105 71 88 0.0 1.0 0.00 0.00 0.00 93 1019.6
20260831111550 70 88 0.0 1.0 0.00 0.00 0.00 94 1019.6
20260831110048 70 88 0.0 1.0 0.00 0.00 0.00 94 1019.4
20260831104555 70 88 0.0 2.0 0.00 0.00 0.00 94 1019.3
20260831103045 70 88 0.0 1.0 0.00 0.00 0.00 94 1019.2
20260831101547 70 88 1.0 3.0 0.00 0.00 0.00 94 1019.1
20260831100046 70 115 0.0 0.0 0.00 0.00 0.00 93 1019.0